Location: Dyersburg
(36.0438°N, 89.3789°W)
Time: 20:03:57
(UTC+00:00)

ISS - Visible Passes

Search period start: 29 January 2020 00:00
Search period end: 08 February 2020 00:00
Orbit: 416 x 423 km, 51.6° (Epoch: 30 January)

Date Brightness Start Highest point End Pass type
(mag) Time Alt. Az. Time Alt. Az. Time Alt. Az.
03 Feb -1.3 00:35:55 10° N 00:36:38 11° NNE 00:36:38 11° NNE visible
04 Feb -1.1 01:23:30 10° NNW 01:24:13 15° NNW 01:24:13 15° NNW visible
05 Feb -2.2 00:36:11 10° NNW 00:38:49 21° NNE 00:38:55 21° NNE visible
05 Feb -1.7 23:49:01 10° N 23:51:00 15° NNE 23:53:00 10° ENE visible
06 Feb -2.1 01:24:48 10° NW 01:26:46 32° NW 01:26:46 32° NW visible
07 Feb -3.6 00:37:13 10° NW 00:40:33 54° NE 00:41:49 31° E visible
